| time (UTC) | temp F | wind direction | speed MPH | gust MPH | rain 1hr in | rain 24hr in | rain mn in | humidity % | barometer mb |
| 20260906184558 | 94 | 32 | 3.0 | 9.0 | 0.00 | 0.00 | 0.00 | 47 | 1011.8 |
| 20260906183058 | 94 | 8 | 0.0 | 5.0 | 0.00 | 0.00 | 0.00 | 45 | 1012.1 |
| 20260906181555 | 95 | 11 | 3.0 | 9.0 | 0.00 | 0.00 | 0.00 | 45 | 1012.5 |
| 20260906180105 | 93 | 354 | 3.0 | 8.0 | 0.00 | 0.00 | 0.00 | 47 | 1013.0 |
| 20260906174556 | 92 | 31 | 3.0 | 8.0 | 0.00 | 0.00 | 0.00 | 47 | 1013.2 |
| 20260906173047 | 92 | 25 | 2.0 | 9.0 | 0.00 | 0.00 | 0.00 | 50 | 1013.3 |
| 20260906171548 | 90 | 337 | 2.0 | 6.0 | 0.00 | 0.00 | 0.00 | 53 | 1013.5 |
| 20260906170049 | 88 | 354 | 3.0 | 5.0 | 0.00 | 0.00 | 0.00 | 54 | 1013.6 |
| 20260906164537 | 88 | 16 | 2.0 | 4.0 | 0.00 | 0.00 | 0.00 | 56 | 1013.7 |
| 20260906163041 | 87 | 35 | 2.0 | 6.0 | 0.00 | 0.00 | 0.00 | 54 | 1013.9 |
| 20260906161534 | 87 | 42 | 2.0 | 6.0 | 0.00 | 0.00 | 0.00 | 54 | 1013.8 |
| 20260906160038 | 87 | 354 | 2.0 | 5.0 | 0.00 | 0.00 | 0.00 | 53 | 1013.7 |
| 20260906154530 | 86 | 285 | 1.0 | 7.0 | 0.00 | 0.00 | 0.00 | 57 | 1013.7 |
| 20260906153027 | 83 | 67 | 0.0 | 4.0 | 0.00 | 0.00 | 0.00 | 64 | 1013.6 |
| 20260906151525 | 82 | 289 | 2.0 | 11.0 | 0.00 | 0.00 | 0.00 | 66 | 1013.6 |
| 20260906150029 | 82 | 304 | 4.0 | 10.0 | 0.00 | 0.00 | 0.00 | 66 | 1013.5 |
| 20260906144526 | 83 | 87 | 1.0 | 4.0 | 0.00 | 0.00 | 0.00 | 63 | 1013.1 |
| 20260906143029 | 82 | 177 | 0.0 | 6.0 | 0.00 | 0.00 | 0.00 | 63 | 1013.1 |
| 20260906141519 | 82 | 146 | 1.0 | 4.0 | 0.00 | 0.00 | 0.00 | 66 | 1013.1 |
| 20260906140029 | 79 | 92 | 0.0 | 2.0 | 0.00 | 0.00 | 0.00 | 69 | 1013.1 |
| 20260906134517 | 79 | 115 | 1.0 | 4.0 | 0.00 | 0.00 | 0.00 | 67 | 1013.1 |
| 20260906133016 | 79 | 113 | 1.0 | 4.0 | 0.00 | 0.00 | 0.00 | 68 | 1013.0 |
| 20260906131529 | 77 | 97 | 0.0 | 0.0 | 0.00 | 0.00 | 0.00 | 72 | 1012.8 |
| 20260906130012 | 75 | 93 | 0.0 | 0.0 | 0.00 | 0.00 | 0.00 | 74 | 1012.7 |
| 20260906124511 | 75 | 105 | 0.0 | 0.0 | 0.00 | 0.00 | 0.00 | 74 | 1012.5 |
| 20260906123008 | 75 | 129 | 0.0 | 4.0 | 0.00 | 0.00 | 0.00 | 75 | 1012.2 |
| 20260906121507 | 74 | 91 | 2.0 | 4.0 | 0.00 | 0.00 | 0.00 | 75 | 1012.0 |
| 20260906120005 | 74 | 95 | 1.0 | 4.0 | 0.00 | 0.00 | 0.00 | 75 | 1011.7 |
| 20260906114504 | 75 | 147 | 0.0 | 4.0 | 0.00 | 0.00 | 0.00 | 75 | 1011.6 |
| 20260906113003 | 75 | 91 | 1.0 | 3.0 | 0.00 | 0.00 | 0.00 | 74 | 1011.4 |
| 20260906111502 | 75 | 104 | 0.0 | 3.0 | 0.00 | 0.00 | 0.00 | 74 | 1011.3 |
| 20260906110001 | 75 | 85 | 0.0 | 0.0 | 0.00 | 0.00 | 0.00 | 75 | 1011.4 |
| 20260906104503 | 75 | 79 | 0.0 | 0.0 | 0.00 | 0.00 | 0.00 | 75 | 1011.3 |
| 20260906103100 | 75 | 97 | 0.0 | 2.0 | 0.00 | 0.00 | 0.00 | 75 | 1011.3 |
| 20260906101559 | 74 | 78 | 0.0 | 0.0 | 0.00 | 0.00 | 0.00 | 77 | 1011.2 |
| 20260906100058 | 74 | 78 | 0.0 | 0.0 | 0.00 | 0.00 | 0.00 | 77 | 1011.2 |
| 20260906094557 | 74 | 78 | 0.0 | 0.0 | 0.00 | 0.00 | 0.00 | 76 | 1011.0 |
| 20260906093054 | 75 | 78 | 0.0 | 0.0 | 0.00 | 0.00 | 0.00 | 75 | 1011.0 |
| 20260906091552 | 75 | 78 | 0.0 | 0.0 | 0.00 | 0.00 | 0.00 | 74 | 1011.1 |
| 20260906090054 | 76 | 78 | 0.0 | 0.0 | 0.00 | 0.00 | 0.00 | 71 | 1011.1 |
| 20260906084551 | 76 | 78 | 0.0 | 0.0 | 0.00 | 0.00 | 0.00 | 70 | 1010.9 |
| 20260906083047 | 76 | 78 | 0.0 | 0.0 | 0.00 | 0.00 | 0.00 | 71 | 1010.9 |
| 20260906081543 | 77 | 131 | 0.0 | 2.0 | 0.00 | 0.00 | 0.00 | 69 | 1010.9 |
| 20260906080042 | 78 | 115 | 0.0 | 3.0 | 0.00 | 0.00 | 0.00 | 68 | 1010.8 |
| 20260906074542 | 78 | 92 | 0.0 | 3.0 | 0.00 | 0.00 | 0.00 | 68 | 1010.9 |
| 20260906073043 | 78 | 95 | 0.0 | 3.0 | 0.00 | 0.00 | 0.00 | 67 | 1010.7 |
| 20260906071555 | 78 | 104 | 1.0 | 3.0 | 0.00 | 0.00 | 0.00 | 67 | 1010.7 |
| 20260906070039 | 78 | 112 | 1.0 | 3.0 | 0.00 | 0.00 | 0.00 | 67 | 1010.7 |
| 20260906064536 | 79 | 87 | 0.0 | 0.0 | 0.00 | 0.00 | 0.00 | 66 | 1010.8 |
| 20260906063035 | 79 | 124 | 1.0 | 4.0 | 0.00 | 0.00 | 0.00 | 65 | 1010.7 |
| 20260906061534 | 79 | 91 | 1.0 | 3.0 | 0.00 | 0.00 | 0.00 | 65 | 1010.7 |
| 20260906060035 | 80 | 69 | 1.0 | 3.0 | 0.00 | 0.00 | 0.00 | 64 | 1010.7 |
| 20260906054532 | 80 | 88 | 1.0 | 3.0 | 0.00 | 0.00 | 0.00 | 64 | 1010.7 |
| 20260906053030 | 80 | 115 | 2.0 | 4.0 | 0.00 | 0.00 | 0.00 | 63 | 1010.7 |
| 20260906051526 | 81 | 86 | 1.0 | 6.0 | 0.00 | 0.00 | 0.00 | 63 | 1010.6 |
| 20260906050026 | 81 | 81 | 1.0 | 4.0 | 0.00 | 0.00 | 0.00 | 62 | 1010.5 |
| 20260906044524 | 82 | 121 | 2.0 | 4.0 | 0.00 | 0.00 | 0.00 | 61 | 1010.5 |
| 20260906043030 | 82 | 114 | 2.0 | 4.0 | 0.00 | 0.00 | 0.00 | 60 | 1010.4 |
| 20260906041523 | 82 | 85 | 2.0 | 3.0 | 0.00 | 0.00 | 0.00 | 60 | 1010.5 |
| 20260906040029 | 83 | 87 | 1.0 | 4.0 | 0.00 | 0.00 | 0.00 | 59 | 1010.6 |
| 20260906034533 | 83 | 102 | 1.0 | 3.0 | 0.00 | 0.00 | 0.00 | 59 | 1010.5 |
| 20260906033027 | 84 | 86 | 2.0 | 4.0 | 0.00 | 0.00 | 0.00 | 58 | 1010.3 |
| 20260906031520 | 84 | 85 | 1.0 | 3.0 | 0.00 | 0.00 | 0.00 | 58 | 1010.2 |
| 20260906030020 | 85 | 106 | 0.0 | 3.0 | 0.00 | 0.00 | 0.00 | 58 | 1009.9 |
| 20260906024520 | 85 | 83 | 1.0 | 6.0 | 0.00 | 0.00 | 0.00 | 57 | 1009.7 |
| 20260906023019 | 86 | 91 | 1.0 | 4.0 | 0.00 | 0.00 | 0.00 | 56 | 1009.6 |
| 20260906021521 | 86 | 81 | 1.0 | 3.0 | 0.00 | 0.00 | 0.00 | 56 | 1009.3 |
| 20260906020019 | 87 | 87 | 1.0 | 3.0 | 0.00 | 0.00 | 0.00 | 55 | 1008.9 |
| 20260906014531 | 87 | 91 | 0.0 | 4.0 | 0.00 | 0.00 | 0.00 | 54 | 1008.7 |
| 20260906013019 | 88 | 87 | 1.0 | 3.0 | 0.00 | 0.00 | 0.00 | 54 | 1008.4 |
| 20260906011532 | 89 | 79 | 0.0 | 3.0 | 0.00 | 0.00 | 0.00 | 53 | 1008.3 |
| 20260906010016 | 90 | 129 | 0.0 | 3.0 | 0.00 | 0.00 | 0.00 | 51 | 1008.2 |
| 20260906004531 | 91 | 81 | 1.0 | 4.0 | 0.00 | 0.00 | 0.00 | 50 | 1008.4 |
| 20260906003015 | 92 | 95 | 2.0 | 4.0 | 0.00 | 0.00 | 0.00 | 49 | 1008.4 |
| 20260906001517 | 92 | 113 | 2.0 | 6.0 | 0.00 | 0.00 | 0.00 | 49 | 1008.5 |
| 20260906000014 | 92 | 84 | 2.0 | 6.0 | 0.00 | 0.00 | 0.00 | 48 | 1008.6 |
| 20260905234513 | 93 | 86 | 1.0 | 5.0 | 0.00 | 0.00 | 0.00 | 48 | 1008.7 |
| 20260905233013 | 93 | 89 | 1.0 | 4.0 | 0.00 | 0.00 | 0.00 | 47 | 1008.5 |
| 20260905231512 | 94 | 117 | 2.0 | 4.0 | 0.00 | 0.00 | 0.00 | 46 | 1008.5 |
| 20260905230015 | 95 | 78 | 2.0 | 6.0 | 0.00 | 0.00 | 0.00 | 44 | 1008.5 |
| 20260905224523 | 95 | 75 | 2.0 | 5.0 | 0.00 | 0.00 | 0.00 | 44 | 1008.5 |
| 20260905223011 | 95 | 67 | 1.0 | 6.0 | 0.00 | 0.00 | 0.00 | 44 | 1008.5 |
| 20260905221510 | 96 | 85 | 3.0 | 7.0 | 0.00 | 0.00 | 0.00 | 42 | 1008.6 |
| 20260905220010 | 97 | 95 | 2.0 | 6.0 | 0.00 | 0.00 | 0.00 | 42 | 1008.5 |
| 20260905214508 | 97 | 81 | 2.0 | 8.0 | 0.00 | 0.00 | 0.00 | 41 | 1008.6 |
| 20260905213013 | 98 | 120 | 4.0 | 10.0 | 0.00 | 0.00 | 0.00 | 39 | 1008.7 |
| 20260905211507 | 99 | 131 | 3.0 | 9.0 | 0.00 | 0.00 | 0.00 | 37 | 1008.9 |
| 20260905210010 | 100 | 69 | 4.0 | 12.0 | 0.00 | 0.00 | 0.00 | 37 | 1008.6 |
| 20260905204505 | 99 | 83 | 5.0 | 10.0 | 0.00 | 0.00 | 0.00 | 38 | 1008.9 |
| 20260905203004 | 100 | 95 | 6.0 | 15.0 | 0.00 | 0.00 | 0.00 | 37 | 1009.0 |
| 20260905201502 | 101 | 125 | 3.0 | 12.0 | 0.00 | 0.00 | 0.00 | 37 | 1009.3 |
| 20260905200106 | 101 | 69 | 5.0 | 11.0 | 0.00 | 0.00 | 0.00 | 36 | 1009.5 |
| 20260905194559 | 99 | 79 | 4.0 | 12.0 | 0.00 | 0.00 | 0.00 | 39 | 1009.8 |
| 20260905193109 | 100 | 93 | 3.0 | 9.0 | 0.00 | 0.00 | 0.00 | 37 | 1009.9 |
| 20260905191600 | 101 | 137 | 2.0 | 10.0 | 0.00 | 0.00 | 0.00 | 35 | 1010.0 |
| 20260905190101 | 101 | 137 | 3.0 | 10.0 | 0.00 | 0.00 | 0.00 | 37 | 1010.1 |